#timestamp,LO_Frequency,Hit,StdDev 
1663837215.7,286047000.4,P
1663837235.6,286046998.1,P
1663837255.4,286046998.4,N
1663837275.2,286046999.9,N
1663837295.1,286047000.2,N
1663837296.0,286047000.2,N
1663837315.8,286047000.2,N
1663837335.6,286046999.9,N
1663837355.5,286046999.7,N
1663837375.3,286047000.2,N
1663837395.2,286047000.0,N
1663837415.9,286047000.2,N
1663837435.7,286046998.5,N
1663837455.6,286046999.4,N
1663837475.4,286046996.9,Y
1663837495.2,286046998.4,P
1663837515.1,286046998.2,N
1663837516.0,286046998.2,N
1663837535.8,286046998.3,N
1663837555.7,286046997.7,Y
1663837575.5,286046999.0,P
1663837595.3,286046998.1,P
1663837615.2,286047000.4,N
1663837635.0,286047000.1,N
1663837635.9,286047000.1,N
1663837655.8,286047000.3,N
1663837675.6,286047000.2,N
1663837695.4,286047000.9,N
1663837715.3,286046999.7,N
1663837735.1,286046999.8,N
1663837755.8,286047002.2,N
1663837775.7,286046998.1,N
1663837795.5,286047000.9,N
1663837815.4,286047001.0,N
1663837835.2,286047000.2,N
1663837855.0,286046998.6,N
1663837855.9,286046998.6,N
1663837875.8,286046999.6,N
1663837895.6,286046996.6,Y
1663837915.5,286046998.6,P
1663837935.3,286046998.1,P
1663837955.1,286046999.7,N
1663837975.9,286047002.1,N
1663837995.7,286047002.0,N
1663838015.5,286047002.4,N
1663838035.4,286047002.3,N
1663838055.2,286047002.0,N
1663838075.1,286047004.3,N
1663838076.0,286047004.3,N
1663838095.8,286047004.1,N
1663838115.6,286047001.8,N
1663838135.5,286047001.4,N
1663838155.3,286046999.8,N
1663838175.1,286047002.8,N
1663838195.9,286047002.3,N
1663838215.7,286047002.5,N
1663838235.6,286047004.3,N
1663838255.4,286047003.7,N
1663838275.2,286047002.9,N
1663838295.1,286047003.1,N
1663838296.0,286047003.1,N
1663838315.8,286047001.8,N
1663838335.7,286047000.0,N
1663838355.5,286046999.7,N
1663838375.3,286047002.5,N
1663838395.2,286047002.0,N
1663838415.0,286047002.7,N
1663838415.9,286047002.7,N
1663838435.7,286047002.3,N
1663838455.6,286047002.0,N
1663838475.4,286047003.9,N
1663838495.3,286047006.0,Y
1663838515.1,286047002.0,P
1663838546.0,286047001.9,E
1663838555.1,286047002.4,N
1663838556.0,286047002.4,P
1663838575.8,286047002.8,P
1663838595.6,286047000.5,N
1663838615.5,286047001.5,N
1663838635.3,286047002.1,N
1663838655.1,286047001.6,N
1663838675.9,286047002.0,N
1663838695.7,286047002.0,N
1663838715.6,286047001.3,N
1663838735.4,286047002.3,Y
1663838755.2,286046996.6,P
1663838775.1,286046996.7,N
1663838776.0,286046996.7,N
1663838795.8,286046996.1,N
1663838815.6,286046997.5,N
1663838835.5,286046997.6,N
1663838855.3,286046997.3,N
1663838875.2,286046997.2,N
1663838895.9,286046996.5,N
1663838915.7,286046999.2,N
1663838935.6,286046998.6,N
1663838955.4,286046999.9,N
1663838975.2,286047000.0,N
1663838995.1,286047000.0,N
1663838996.0,286047000.0,N
1663839015.8,286047000.3,N
1663839035.7,286047000.6,N
1663839055.5,286046998.8,N
1663839075.3,286047001.0,N
1663839095.2,286047001.2,N
1663839115.0,286046999.0,N
1663839115.9,286046999.0,N
1663839135.7,286046999.1,N
1663839155.6,286046998.4,N
1663839175.4,286046998.5,N
1663839195.3,286046997.3,N
1663839215.1,286046996.9,N
1663839216.0,286046996.9,N
1663839235.8,286046999.1,N
1663839255.7,286046998.8,N
1663839275.5,286047001.1,N
1663839295.4,286047001.0,N
1663839315.2,286047000.9,N
1663839335.0,286046999.3,N
1663839335.9,286046999.3,N
1663839355.8,286046999.6,N
1663839375.6,286046999.1,N
1663839395.4,286046998.5,N
1663839415.3,286046999.6,N
1663839435.1,286046997.1,N
1663839455.9,286046997.2,N
1663839475.7,286046997.0,N
1663839495.5,286046997.3,N
1663839515.4,286046997.0,N
1663839535.2,286046999.2,N
1663839555.1,286046998.5,N
1663839556.0,286046998.5,N
1663839575.8,286046998.7,N
1663839595.6,286046997.5,N
1663839615.5,286046995.5,Y
1663839635.3,286046997.6,P
1663839655.2,286046996.5,P
1663839675.9,286046998.8,N
1663839695.7,286046998.2,N
1663839715.6,286047001.0,N
1663839735.4,286046998.8,N
1663839755.2,286047000.0,N
1663839775.1,286047000.1,N
1663839776.0,286047000.1,N
1663839795.8,286047002.7,N
1663839815.7,286046999.8,N
1663839835.5,286047000.0,N
1663839855.3,286046998.8,N
1663839875.2,286046998.3,N
1663839895.9,286047000.4,N
1663839915.7,286047000.3,N
1663839935.6,286046999.8,N
1663839955.4,286047002.0,N
1663839975.3,286047004.2,N
1663839995.1,286047003.8,N
1663839996.0,286047003.8,N
1663840015.8,286047005.9,N
1663840035.7,286047002.7,N
1663840055.5,286046999.7,N
1663840075.3,286047002.4,N
1663840095.2,286047000.6,N
1663840115.0,286047002.5,N
1663840115.9,286047002.5,N
1663840135.8,286047003.8,N
1663840155.6,286047001.6,N
1663840175.5,286046999.8,N
1663840195.3,286047000.4,N
1663840215.1,286046999.4,N
1663840235.9,286046998.5,N
1663840255.7,286046998.9,N
1663840275.5,286047001.0,N
1663840295.4,286047000.9,N
1663840315.2,286047000.8,N
1663840335.1,286046999.9,N
1663840336.0,286046999.9,N
1663840355.8,286047000.1,N
1663840375.6,286047000.9,N
1663840395.5,286047000.3,N
1663840415.3,286047002.6,N
1663840435.2,286047002.3,N
1663840455.9,286047002.0,N
1663840475.7,286047004.3,N
1663840495.6,286047002.3,N
1663840515.4,286047002.5,N
1663840535.2,286046999.7,N
1663840555.1,286046999.9,N
1663840556.0,286046999.9,N
1663840575.8,286047002.3,N
1663840595.7,286047001.9,N
1663840615.5,286047001.8,N
1663840635.4,286047004.3,Y
1663840655.2,286046998.1,P
1663840675.0,286047001.1,N
1663840675.9,286047001.1,N
1663840695.8,286046998.2,N
1663840715.6,286047000.3,N
1663840735.5,286047000.1,N
1663840755.3,286047002.2,N
1663840775.1,286047001.7,N
1663840795.9,286047002.7,N
